AF7DW Weather Reports


time (UTC)temp
C
wind
direction
speed
KPH
gust
KPH
rain 1hr
cm
rain 24hr
cm
rain mn
cm
humidity
%
barometer
mb
20260505081559 13 290 0.0 4.8 0.00 0.00 0.00 57 1009.3
20260505081038 13 11 1.6 4.8 0.00 0.00 0.00 56 1009.3
20260505080537 13 13 0.0 0.0 0.00 0.00 0.00 56 1009.4
20260505080059 13 0 0.0 0.0 0.00 0.00 0.00 56 1009.5
20260505075539 13 0 0.0 0.0 0.00 0.00 0.00 56 1009.6
20260505075037 13 0 0.0 0.0 0.00 0.00 0.00 56 1009.6
20260505074546 13 0 0.0 0.0 0.00 0.00 0.00 56 1009.7
20260505074039 13 0 0.0 0.0 0.00 0.00 0.00 56 1009.7
20260505073537 13 0 0.0 1.6 0.00 0.00 0.00 57 1009.8
20260505073055 14 0 0.0 6.4 0.00 0.00 0.00 56 1009.9
20260505072540 14 291 0.0 6.4 0.00 0.00 0.00 56 1009.9
20260505072039 14 0 0.0 4.8 0.00 0.00 0.00 56 1009.9
20260505071603 14 0 0.0 4.8 0.00 0.00 0.00 55 1009.8
20260505071042 14 0 0.0 1.6 0.00 0.00 0.00 55 1009.9
20260505070539 14 0 0.0 0.0 0.00 0.00 0.00 54 1009.9
20260505070054 14 0 0.0 11.3 0.00 0.00 0.00 54 1010.0
20260505065539 15 0 0.0 16.1 0.00 0.00 0.00 53 1010.0
20260505065039 15 0 3.2 16.1 0.00 0.00 0.00 53 1009.9
20260505064543 15 0 1.6 12.9 0.00 0.00 0.00 52 1009.9
20260505064039 15 0 0.0 9.7 0.00 0.00 0.00 51 1010.0
20260505063539 15 0 0.0 9.7 0.00 0.00 0.00 51 1009.9
20260505063055 15 0 0.0 14.5 0.00 0.00 0.00 50 1009.9
20260505062541 15 0 0.0 14.5 0.00 0.00 0.00 49 1009.8
20260505062038 15 271 4.8 14.5 0.00 0.00 0.00 48 1009.6
20260505061557 15 0 0.0 11.3 0.00 0.00 0.00 46 1009.4
20260505061041 15 0 3.2 11.3 0.00 0.00 0.00 46 1009.3
20260505060539 15 248 1.6 14.5 0.00 0.00 0.00 46 1009.2
20260505060100 15 307 1.6 14.5 0.00 0.00 0.00 45 1009.1
20260505055539 15 0 0.0 14.5 0.00 0.00 0.00 44 1009.1
20260505055041 15 0 1.6 8.0 0.00 0.00 0.00 43 1009.0
20260505054553 16 0 0.0 6.4 0.00 0.00 0.00 43 1008.9
20260505054040 16 0 0.0 6.4 0.00 0.00 0.00 44 1008.8
20260505053538 16 15 1.6 6.4 0.00 0.00 0.00 43 1008.9
20260505053052 16 0 0.0 4.8 0.00 0.00 0.00 43 1009.0
20260505052537 16 0 0.0 4.8 0.00 0.00 0.00 43 1009.0
20260505052038 16 345 0.0 4.8 0.00 0.00 0.00 43 1009.0
20260505051550 16 0 0.0 4.8 0.00 0.00 0.00 42 1009.0
20260505051039 16 0 0.0 4.8 0.00 0.00 0.00 42 1009.0
20260505050537 16 0 0.0 4.8 0.00 0.00 0.00 41 1008.8
20260505041601 16 70 0.0 8.0 0.00 0.00 0.00 38 1007.7
20260505041038 16 0 0.0 8.0 0.00 0.00 0.00 37 1007.6
20260505040538 16 18 1.6 8.0 0.00 0.00 0.00 37 1007.4
20260505040050 16 0 0.0 8.0 0.00 0.00 0.00 37 1007.5
20260505035539 16 30 1.6 8.0 0.00 0.00 0.00 37 1007.4
20260505035041 16 0 0.0 0.0 0.00 0.00 0.00 37 1007.3
20260505034550 16 0 0.0 0.0 0.00 0.00 0.00 36 1007.3
20260505034039 17 0 0.0 0.0 0.00 0.00 0.00 36 1007.2
20260505033539 17 0 0.0 0.0 0.00 0.00 0.00 36 1007.2
20260505033049 17 0 0.0 0.0 0.00 0.00 0.00 35 1007.2
20260505032541 17 0 0.0 0.0 0.00 0.00 0.00 35 1007.1
20260505032038 17 0 0.0 0.0 0.00 0.00 0.00 35 1007.0
20260505031547 17 0 0.0 0.0 0.00 0.00 0.00 35 1007.0
20260505031038 17 0 0.0 0.0 0.00 0.00 0.00 35 1006.9
20260505030539 17 0 0.0 0.0 0.00 0.00 0.00 34 1006.9
20260505030108 17 0 0.0 0.0 0.00 0.00 0.00 33 1006.9
20260505025539 17 0 0.0 0.0 0.00 0.00 0.00 33 1006.9
20260505025038 18 0 0.0 0.0 0.00 0.00 0.00 33 1006.8
20260505024548 18 0 0.0 0.0 0.00 0.00 0.00 33 1006.8
20260505024037 18 0 0.0 0.0 0.00 0.00 0.00 33 1006.8
20260505023537 18 0 0.0 0.0 0.00 0.00 0.00 32 1006.8
20260505023051 18 0 0.0 0.0 0.00 0.00 0.00 31 1006.7
20260505022537 18 0 0.0 0.0 0.00 0.00 0.00 31 1006.6
20260505022038 18 0 0.0 0.0 0.00 0.00 0.00 31 1006.6
20260505021543 19 0 0.0 0.0 0.00 0.00 0.00 30 1006.5
20260505021040 19 0 0.0 1.6 0.00 0.00 0.00 29 1006.6
20260505020541 19 0 0.0 3.2 0.00 0.00 0.00 29 1006.6
20260505020050 19 0 0.0 4.8 0.00 0.00 0.00 30 1006.5
20260505015537 19 0 0.0 4.8 0.00 0.00 0.00 29 1006.5
20260505015040 20 0 0.0 9.7 0.00 0.00 0.00 30 1006.5
20260505014607 20 117 0.0 9.7 0.00 0.00 0.00 30 1006.4
20260505014038 20 229 1.6 9.7 0.00 0.00 0.00 29 1006.4
20260505013540 20 0 1.6 8.0 0.00 0.00 0.00 29 1006.5
20260505013056 20 155 0.0 6.4 0.00 0.00 0.00 29 1006.5
20260505012538 20 0 0.0 6.4 0.00 0.00 0.00 29 1006.6
20260505012039 20 0 0.0 6.4 0.00 0.00 0.00 28 1006.7
20260505011552 20 0 0.0 6.4 0.00 0.00 0.00 29 1006.7
20260505011040 20 211 0.0 1.6 0.00 0.00 0.00 29 1006.7
20260505010540 20 0 0.0 9.7 0.00 0.00 0.00 29 1006.7
20260505010059 20 0 0.0 11.3 0.00 0.00 0.00 29 1006.8
20260505005539 21 0 0.0 12.9 0.00 0.00 0.00 29 1006.7
20260505005041 21 273 3.2 12.9 0.00 0.00 0.00 28 1006.8
20260505004551 21 0 0.0 0.0 0.00 0.00 0.00 29 1006.8
20260505004040 21 0 0.0 11.3 0.00 0.00 0.00 28 1006.8
20260505003538 21 0 0.0 16.1 0.00 0.00 0.00 28 1006.8
20260505003058 21 300 1.6 16.1 0.00 0.00 0.00 28 1006.9
20260505002540 21 245 3.2 16.1 0.00 0.00 0.00 28 1006.9
20260505002041 21 0 0.0 0.0 0.00 0.00 0.00 28 1007.0
20260505001546 21 0 0.0 8.0 0.00 0.00 0.00 28 1007.1
20260505001038 21 0 0.0 9.7 0.00 0.00 0.00 29 1007.1
20260505000538 21 0 1.6 9.7 0.00 0.00 0.00 28 1007.1
20260505000051 21 161 0.0 11.3 0.00 0.00 0.00 29 1007.1
20260504235539 21 328 0.0 11.3 0.00 0.00 0.00 30 1007.1
20260504235038 21 214 0.0 16.1 0.00 0.00 0.00 30 1007.2
20260504234545 21 284 4.8 16.1 0.00 0.00 0.00 30 1007.2
20260504234037 21 0 1.6 12.9 0.00 0.00 0.00 30 1007.2
20260504233537 21 0 0.0 14.5 0.00 0.00 0.00 30 1007.2
20260504233050 21 0 0.0 19.3 0.00 0.00 0.00 30 1007.1
20260504232537 21 261 4.8 19.3 0.00 0.00 0.00 30 1007.1
20260504232039 21 271 4.8 14.5 0.00 0.00 0.00 28 1007.1
20260504231549 22 209 1.6 16.1 0.00 0.00 0.00 29 1007.0
20260504231040 22 275 3.2 16.1 0.00 0.00 0.00 25 1007.0
20260504230541 22 72 0.0 8.0 0.00 0.00 0.00 24 1006.8
20260504230049 23 0 0.0 8.0 0.00 0.00 0.00 21 1006.9
20260504225539 23 284 1.6 9.7 0.00 0.00 0.00 22 1006.9
20260504225039 23 0 0.0 14.5 0.00 0.00 0.00 22 1007.0
20260504224545 23 0 3.2 14.5 0.00 0.00 0.00 22 1007.0
20260504224041 23 0 1.6 14.5 0.00 0.00 0.00 22 1007.0
20260504223537 23 0 0.0 11.3 0.00 0.00 0.00 22 1007.0
20260504223104 23 265 0.0 16.1 0.00 0.00 0.00 25 1007.0
20260504222541 23 0 1.6 16.1 0.00 0.00 0.00 22 1007.0
20260504222041 24 284 3.2 16.1 0.00 0.00 0.00 21 1007.0
20260504221548 24 49 0.0 6.4 0.00 0.00 0.00 21 1007.0
20260504221041 23 0 1.6 11.3 0.00 0.00 0.00 20 1007.0
20260504220542 24 334 0.0 12.9 0.00 0.00 0.00 20 1007.1
20260504220051 25 308 3.2 12.9 0.00 0.00 0.00 20 1007.1
20260504215539 24 10 4.8 12.9 0.00 0.00 0.00 23 1007.2
20260504215041 24 0 0.0 11.3 0.00 0.00 0.00 23 1007.3
20260504214548 24 0 0.0 14.5 0.00 0.00 0.00 25 1007.3
20260504214041 23 0 3.2 14.5 0.00 0.00 0.00 26 1007.5
20260504213538 23 254 4.8 14.5 0.00 0.00 0.00 24 1007.5
20260504213046 23 280 4.8 14.5 0.00 0.00 0.00 24 1007.6
20260504212542 23 319 0.0 12.9 0.00 0.00 0.00 23 1007.6
20260504212039 23 178 0.0 12.9 0.00 0.00 0.00 21 1007.7
20260504211624 23 262 3.2 17.7 0.00 0.00 0.00 23 1007.7
20260504211040 23 299 1.6 17.7 0.00 0.00 0.00 26 1007.8
20260504210541 23 224 1.6 17.7 0.00 0.00 0.00 25 1008.0
20260504210052 23 0 4.8 17.7 0.00 0.00 0.00 26 1008.0
20260504205539 23 225 1.6 8.0 0.00 0.00 0.00 27 1008.1
20260504205040 23 0 0.0 9.7 0.00 0.00 0.00 23 1008.1
20260504204546 23 130 0.0 11.3 0.00 0.00 0.00 22 1008.1
20260504204041 23 205 0.0 11.3 0.00 0.00 0.00 24 1008.2
20260504203542 23 260 0.0 11.3 0.00 0.00 0.00 24 1008.2
20260504203050 23 250 1.6 12.9 0.00 0.00 0.00 23 1008.3
20260504202541 23 261 0.0 12.9 0.00 0.00 0.00 24 1008.3
20260504202040 23 0 0.0 16.1 0.00 0.00 0.00 24 1008.4
20260504201552 24 180 1.6 16.1 0.00 0.00 0.00 27 1008.4
20260504201040 23 0 3.2 16.1 0.00 0.00 0.00 25 1008.4
20260504200539 23 0 1.6 16.1 0.00 0.00 0.00 26 1008.5
20260504200054 23 0 0.0 11.3 0.00 0.00 0.00 28 1008.6
20260504195537 23 177 1.6 12.9 0.00 0.00 0.00 27 1008.6
20260504195039 23 257 1.6 12.9 0.00 0.00 0.00 26 1008.7
20260504194549 23 0 1.6 14.5 0.00 0.00 0.00 26 1008.7
20260504194037 23 301 4.8 14.5 0.00 0.00 0.00 28 1008.7
20260504193541 23 347 1.6 11.3 0.00 0.00 0.00 28 1008.8
20260504193051 23 40 0.0 11.3 0.00 0.00 0.00 28 1008.8
20260504192538 23 0 1.6 6.4 0.00 0.00 0.00 26 1008.9
20260504192040 23 0 0.0 3.2 0.00 0.00 0.00 27 1008.8
20260504191607 22 0 0.0 4.8 0.00 0.00 0.00 28 1008.8
20260504191041 23 0 0.0 4.8 0.00 0.00 0.00 26 1009.0
20260504190539 23 0 0.0 6.4 0.00 0.00 0.00 26 1009.1
20260504190105 23 159 1.6 6.4 0.00 0.00 0.00 26 1009.2
20260504185538 23 211 0.0 6.4 0.00 0.00 0.00 28 1009.2
20260504185038 22 0 0.0 11.3 0.00 0.00 0.00 27 1009.4
20260504184552 23 0 1.6 11.3 0.00 0.00 0.00 25 1009.3
20260504184038 23 0 0.0 8.0 0.00 0.00 0.00 27 1009.5
20260504183538 23 0 0.0 0.0 0.00 0.00 0.00 26 1009.6
20260504183048 23 0 0.0 9.7 0.00 0.00 0.00 28 1009.6
20260504182540 22 0 0.0 12.9 0.00 0.00 0.00 28 1009.7
20260504182038 22 0 1.6 12.9 0.00 0.00 0.00 28 1009.7
20260504181553 22 249 3.2 12.9 0.00 0.00 0.00 27 1009.8
20260504181041 22 237 1.6 11.3 0.00 0.00 0.00 30 1009.8
20260504180538 22 0 0.0 9.7 0.00 0.00 0.00 29 1009.9
20260504180052 22 185 1.6 9.7 0.00 0.00 0.00 28 1009.9
20260504175540 22 0 1.6 9.7 0.00 0.00 0.00 29 1010.0
20260504175041 22 0 0.0 6.4 0.00 0.00 0.00 31 1010.0
20260504174549 22 0 0.0 6.4 0.00 0.00 0.00 31 1010.0
20260504174041 21 337 0.0 4.8 0.00 0.00 0.00 32 1010.0
20260504173541 21 0 0.0 0.0 0.00 0.00 0.00 28 1010.1
20260504173054 21 0 0.0 8.0 0.00 0.00 0.00 29 1010.2
20260504172540 21 0 0.0 8.0 0.00 0.00 0.00 29 1010.2
20260504172042 21 0 1.6 8.0 0.00 0.00 0.00 30 1010.3
20260504171547 21 349 0.0 3.2 0.00 0.00 0.00 31 1010.3
20260504171039 21 132 0.0 4.8 0.00 0.00 0.00 28 1010.4
20260504170539 21 156 0.0 6.4 0.00 0.00 0.00 28 1010.4
20260504151042 18 0 0.0 0.0 0.00 0.00 0.00 34 1010.6
20260504150540 18 0 0.0 0.0 0.00 0.00 0.00 34 1010.6
20260504141042 13 26 0.0 8.0 0.00 0.00 0.00 44 1010.6
20260504140543 13 24 1.6 8.0 0.00 0.00 0.00 42 1010.7
20260504130541 12 20 1.6 6.4 0.00 0.00 0.00 39 1010.8
20260504110540 14 352 0.0 4.8 0.00 0.00 0.00 31 1010.9
20260504100541 14 0 3.2 17.7 0.00 0.00 0.00 29 1010.7